Portada
METAR-TAF:

METAR-TAF

Aeropuertos :

Lawrence Municipal Airport

Lawrence, Kansas, Estados Unidos

latitud: 39-00-30N, longitud: 095-12-42W, altitud: 253 m

Observación

El informe se hizo hace 54 minutos, a las 06:52 UTC
Viento 5 kt del este-sureste
Temperatura 17°C
Humedad 77%
Presión 1023 hPa
Visibilidad: 16.1 km
Cielo cubierto a una altura de 9500 ft

METAR: KLWC 310652Z AUTO 11005KT 10SM OVC095 17/13 A3022 RMK AO2 SLP226 T01720133

Hora: 02:46 (07:46 UTC)


TAF: falta

Observaciones y pronósticos meteorológicos de más de 4000 aeropuertos (mensajes METAR y TAF).

Los puntos amarillos y rojos representan las estaciones disponibles.

Ponga el ratón en el punto deseado para ver el nombre de la estación.

Haga clic para ver las observaciones y los pronósticos meteorológicos.

Para cambiar el mapa : haga clic en los botones verdes con una cruz de color negro para hacer un zoom, en el botón verde con un guión para alejar o en las flechas verdes para mapas adyacentes.


METAR-TAF: